Flight Track Log - Related Links

Times and Time Zones

All times are in EDT time to prevent confusion due to time zone crossing. See the JBU917 flight status page for this flight to view local times or setup timezone preferences in your user account.

Time Position Orientation Groundspeed Altitude Reporting Facility
EDT Latitude Longitude Course Direction KTS MPH feet Rate Location/Type
Wed 06:09:26 AM 42.3667 -70.9833 160° South 161 185 1,000  Level KA90
Wed 06:10:50 AM 42.3833 -70.8667 79° East 248 285 3,000 2,042 Climbing KA90
Wed 06:11:50 AM 42.3833 -70.7667 90° East 277 319 5,900 2,333 Climbing KA90
Wed 06:12:00 AM 42.3153 -70.6961 164° South  Level FlightAware Approximate
Wed 06:12:20 AM 42.3731 -70.7342 113° Southeast 302 348 6,500  Level Boston Center
Wed 06:13:00 AM 42.2316 -70.6491 160° South  Level FlightAware Approximate
Wed 06:13:20 AM 42.2953 -70.6858 155° Southeast 284 327 10,600  Level Boston Center
Wed 06:14:00 AM 42.1459 -70.6062 160° South  Level FlightAware Approximate
Wed 06:14:20 AM 42.2069 -70.6461 162° South 290 334 12,300  Level Boston Center
Wed 06:15:20 AM 42.1128 -70.6236 170° South 338 389 15,200 2,650 Climbing Boston Center
Wed 06:16:20 AM 42.0306 -70.6933 212° Southwest 318 366 17,600 2,150 Climbing Boston Center
Wed 06:17:20 AM 41.9525 -70.7736 217° Southwest 325 374 19,500 1,800 Climbing Boston Center
Wed 06:18:20 AM 41.8725 -70.8647 220° Southwest 354 407 21,200 1,250 Climbing Boston Center
Wed 06:19:20 AM 41.8075 -70.9750 232° Southwest 372 428 22,000 400 Climbing Boston Center
Wed 06:20:20 AM 41.7400 -71.0881 231° Southwest 384 442 22,000  Level Boston Center
Wed 06:21:20 AM 41.6744 -71.1950 231° Southwest 389 448 22,000  Level Boston Center
Wed 06:22:20 AM 41.6131 -71.2961 231° Southwest 389 448 22,000  Level Boston Center
Wed 06:23:20 AM 41.5453 -71.4083 231° Southwest 389 448 22,000  Level Boston Center
Wed 06:24:20 AM 41.4797 -71.5147 231° Southwest 389 448 22,000  Level Boston Center
Wed 06:25:20 AM 41.4014 -71.6319 228° Southwest 389 448 22,000  Level Boston Center
Wed 06:26:20 AM 41.3375 -71.7350 230° Southwest 394 453 22,000  Level Boston Center
Wed 06:27:20 AM 41.2736 -71.8575 235° Southwest 405 466 22,000  Level Boston Center
Wed 06:28:20 AM 41.2136 -71.9847 238° Southwest 410 472 22,000 -200 Level Boston Center
Wed 06:29:20 AM 41.1536 -72.1067 237° Southwest 410 472 21,600 -1,200 Descending Boston Center
Wed 06:30:20 AM 41.0936 -72.2281 237° Southwest 410 472 19,600 -1,950 Descending Boston Center
Wed 06:31:20 AM 41.0375 -72.3383 236° Southwest 388 447 17,700 -2,050 Descending Boston Center
Wed 06:32:20 AM 40.9811 -72.4483 236° Southwest 378 435 15,500 -2,000 Descending Boston Center
Wed 06:33:20 AM 40.9289 -72.5528 237° Southwest 360 414 13,700 -1,700 Descending Boston Center
Wed 06:34:20 AM 40.8767 -72.6597 237° Southwest 354 407 12,100 -981 Descending Boston Center
Wed 06:35:04 AM 40.8333 -72.7333 232° Southwest 339 390 12,000 -58 Descending New York TRACON
Wed 06:36:04 AM 40.8000 -72.8333 246° West 289 333 12,000  Level New York TRACON
Wed 06:37:04 AM 40.7833 -72.9333 258° West 273 314 12,000 -750 Level New York TRACON
Wed 06:38:04 AM 40.7667 -73.0333 258° West 266 306 10,500 -1,600 Descending New York TRACON
Wed 06:39:04 AM 40.7500 -73.1167 255° West 258 297 8,800 -1,700 Descending New York TRACON
Wed 06:40:04 AM 40.7333 -73.2167 258° West 256 295 7,100 -1,500 Descending New York TRACON
Wed 06:41:04 AM 40.7333 -73.3000 270° West 259 298 5,800 -1,050 Descending New York TRACON
Wed 06:42:04 AM 40.7667 -73.3667 303° West 221 254 5,000 -947 Descending New York TRACON
Wed 06:42:58 AM 40.8000 -73.4333 303° West 212 244 4,000 -947 Descending New York TRACON
Wed 06:43:58 AM 40.8333 -73.5000 303° West 207 238 3,200 -1,000 Descending New York TRACON
Wed 06:44:58 AM 40.8167 -73.5667 252° West 186 214 2,000 -600 Descending New York TRACON
Wed 06:45:58 AM 40.8000 -73.6167 246° West 162 186 2,000  Level New York TRACON
Wed 06:46:58 AM 40.7667 -73.6500 217° Southwest 164 189 2,000  Level New York TRACON

Login

Don't have an account? Register now (free) for customized features, flight alerts, and more!